x

9410840 - Santa Monica Pier (icac1) Weather Station

2:12 - Thu 25th May 2017 All times are PDT. -7 hours from GMT.

  • Wind
    10mph, 11mph gusts
  • Sea Temp 65°f
  • Luft Temp 60°f
  • Sea Pressure 1012.3mb
  • 9410840 - Santa Monica Pier
  • 9410840 - Santa Monica Pier

More Historic Weather Station data

Upgrade to MSW Pro to gain access to the past 30 days of data for over 8000 Wavebouys and Weather Stations around the globe.

Join Pro

Comparision Forecast

View Surf forecast
   
Do 05/25 2:12 10 11 mph 1012.3mb 65f 60f
2:06 10 11 mph 1012.3mb 65f 60f
2:00 9 11 mph 1012.4mb 65f 60f
1:54 10 11 mph 1012.3mb 65f 60f
1:48 10 11 mph 1012.4mb 65f 60f
1:42 8 11 mph 1012.4mb 65f 60f
1:36 9 11 mph 1012.4mb 65f 60f
1:30 9 10 mph 1012.5mb 65f 60f
1:24 8 9 mph 1012.5mb 65f 60f
1:18 8 9 mph 1012.5mb 65f 60f
1:12 8 9 mph 1012.5mb 65f 60f
1:06 8 10 mph 1012.5mb 64f 60f
1:00 8 10 mph 1012.5mb 64f 60f
12:54 8 10 mph 1012.6mb 64f 60f
12:48 9 10 mph 1012.7mb 64f 60f
12:42 8 10 mph 1012.7mb 64f 60f
12:36 8 10 mph 1012.8mb 64f 60f
12:30 9 10 mph 1012.8mb 63f 60f
12:24 8 11 mph 1012.8mb 63f 60f
12:18 8 10 mph 1012.9mb 62f 60f
12:12 8 11 mph 1012.9mb 62f 60f
12:06 9 10 mph 1012.9mb 62f 60f
12:00 8 10 mph 1012.9mb 62f 60f
11:54 8 10 mph 1012.9mb 61f 60f
11:48 9 11 mph 1012.9mb 61f 60f
11:42 10 11 mph 1012.8mb 60f 60f
11:36 9 10 mph 1012.8mb 60f 60f
11:30 9 10 mph 1012.7mb 60f 60f
11:24 8 11 mph 1012.6mb 60f 60f
11:18 10 11 mph 1012.5mb 60f 60f
11:12 7 8 mph 1012.5mb 60f 60f
11:06 6 8 mph 1012.5mb 61f 60f
11:00 6 8 mph 1012.5mb 61f 61f
10:54 7 8 mph 1012.5mb 61f 60f
10:48 7 9 mph 1012.4mb 61f 60f
10:42 6 9 mph 1012.5mb 61f 60f
10:36 7 9 mph 1012.5mb 61f 60f
10:30 8 9 mph 1012.4mb 61f 60f
10:24 3 7 mph 1012.4mb 60f 61f
10:18 5 7 mph 1012.4mb 61f 61f
10:12 5 6 mph 1012.3mb 60f 61f
10:06 6 6 mph 1012.2mb 61f 60f
10:00 5 6 mph 1012.2mb 61f 60f
9:54 5 7 mph 1012.2mb 61f 60f
9:48 5 6 mph 1012.3mb 61f 60f
9:42 5 6 mph 1012.3mb 62f 60f
9:36 3 6 mph 1012.3mb 63f 60f
9:30 3 6 mph 1012.2mb 63f 60f
9:24 5 7 mph 1012.1mb 64f 60f
9:18 5 7 mph 1012.1mb 64f 60f
9:12 6 7 mph 1012mb 64f 60f
9:06 7 8 mph 1012mb 64f 60f
9:00 5 8 mph 1012mb 64f 60f
8:54 6 7 mph 1011.9mb 64f 60f
8:48 5 8 mph 1011.8mb 64f 60f
8:42 3 5 mph 1011.8mb 64f 60f
8:36 2 5 mph 1011.7mb 65f 60f
8:30 5 6 mph 1011.7mb 65f 60f
8:24 5 6 mph 1011.7mb 65f 60f
8:18 3 5 mph 1011.7mb 65f 60f
8:12 3 5 mph 1011.6mb 65f 60f
8:06 3 6 mph 1011.6mb 65f 60f
8:00 3 6 mph 1011.6mb 65f 60f
7:54 5 6 mph 1011.5mb 65f 60f
7:48 3 6 mph 1011.5mb 65f 60f
7:42 5 6 mph 1011.5mb 65f 59f
7:36 3 5 mph 1011.5mb 65f 59f
7:30 3 6 mph 1011.5mb 65f 60f
7:24 3 6 mph 1011.3mb 65f 60f
7:18 5 6 mph 1011.3mb 65f 59f
7:12 3 5 mph 1011.3mb 65f 60f
7:06 3 5 mph 1011.3mb 65f 59f
7:00 2 3 mph 1011.3mb 65f 59f
6:54 1 3 mph 1011.2mb 65f 59f
6:48 3 3 mph 1011.2mb 65f 59f
6:42 3 5 mph 1011.2mb 65f 59f
6:36 3 5 mph 1011.2mb 65f 59f
6:30 3 6 mph 1011.2mb 65f 59f
6:24 5 6 mph 1011.2mb 65f 59f
6:18 3 5 mph 1011.2mb 65f 59f
6:12 3 7 mph 1011.2mb 65f 59f
6:06 6 7 mph 1011.1mb 65f 59f
6:00 5 6 mph 1011.1mb 65f 59f
5:54 6 6 mph 1011.1mb 65f 59f
5:48 2 5 mph 1011.1mb 65f 59f
5:42 3 5 mph 1011mb 65f 59f
5:36 2 5 mph 1011mb 65f 59f
5:30 2 5 mph 1011mb 65f 59f
5:24 3 5 mph 1011mb 65f 59f
5:18 3 5 mph 1011mb 65f 59f
5:12 3 7 mph 1011.1mb 65f 59f
5:06 3 3 mph 1011mb 65f 59f
5:00 3 5 mph 1011mb 65f 59f
4:54 3 6 mph 1011mb 65f 59f
4:48 5 6 mph 1011mb 65f 59f
4:42 3 6 mph 1010.9mb 65f 59f
4:36 5 6 mph 1010.9mb 65f 59f
4:30 2 5 mph 1010.9mb 65f 59f
4:24 5 6 mph 1010.9mb 65f 59f
4:18 3 6 mph 1011mb 65f 59f
4:12 5 7 mph 1011mb 65f 59f
4:06 6 7 mph 1011mb 65f 59f
4:00 3 7 mph 1010.9mb 65f 59f
3:54 6 8 mph 1010.9mb 65f 59f
3:48 5 6 mph 1010.9mb 65f 59f
3:42 5 6 mph 1010.9mb 65f 59f
3:36 5 6 mph 1010.9mb 65f 59f
3:30 5 6 mph 1010.9mb 65f 59f
3:24 5 5 mph 1010.9mb 65f 59f
3:18 5 6 mph 1010.9mb 65f 58f
3:12 6 7 mph 1010.9mb 65f 59f
3:06 6 6 mph 1010.9mb 65f 59f
3:00 5 6 mph 1011mb 65f 59f
2:54 5 6 mph 1011mb 65f 59f
2:48 5 6 mph 1011mb 65f 59f
2:42 3 6 mph 1011mb 65f 59f
2:36 6 6 mph 1011mb 65f 59f
2:30 5 6 mph 1011mb 65f 59f
2:24 2 3 mph 1011mb 65f 59f
2:18 3 5 mph 1011.1mb 65f 59f
2:12 3 5 mph 1011.1mb 65f 59f
2:06 5 6 mph 1011.1mb 64f 59f
2:00 3 5 mph 1011.1mb 64f 59f
1:54 3 6 mph 1011.2mb 64f 59f
1:48 3 3 mph - - -
1:42 3 5 mph 1011.4mb 64f 59f
1:36 3 6 mph 1011.4mb 64f 59f
1:30 3 5 mph 1011.3mb 64f 59f
1:24 2 5 mph 1011.3mb 64f 58f
1:18 5 6 mph 1011.4mb 64f 59f
1:12 5 6 mph 1011.4mb 64f 58f
1:06 5 7 mph 1011.4mb 64f 58f
1:00 6 7 mph 1011.4mb 64f 59f
12:54 6 7 mph 1011.4mb 64f 58f
12:48 5 7 mph 1011.4mb 63f 58f
12:42 6 9 mph 1011.4mb 63f 58f
12:36 8 10 mph 1011.3mb 63f 59f
12:30 7 9 mph 1011.3mb 62f 58f
12:24 7 9 mph 1011.3mb 62f 59f
12:18 8 11 mph 1011.4mb 62f 58f
12:12 7 13 mph 1011.4mb 62f 58f
12:06 7 9 mph 1011.5mb 62f 59f
12:00 3 6 mph 1011.4mb 62f 58f
Mi 05/24 11:54 6 7 mph 1011.4mb 62f 58f
11:48 6 7 mph - - -
11:42 3 6 mph 1011.4mb 62f 58f
11:36 3 6 mph 1011.3mb 62f 58f
11:30 5 6 mph 1011.4mb 62f 58f
11:24 5 6 mph 1011.4mb 62f 58f
11:18 6 7 mph 1011.3mb 62f 58f
11:12 6 7 mph 1011.3mb 62f 58f
11:06 6 8 mph 1011.3mb 62f 58f
11:00 6 7 mph 1011.2mb 62f 58f
10:54 5 8 mph 1011.1mb 62f 58f
10:48 7 9 mph 1011.2mb 62f 58f
10:42 5 8 mph 1011.1mb 63f 58f
10:36 8 9 mph 1011.1mb 62f 58f
10:30 9 10 mph 1011.1mb 62f 57f
10:24 9 11 mph 1011.1mb 62f 58f
10:18 10 11 mph 1011mb 62f 58f
10:12 7 9 mph 1011mb 62f 58f
10:06 6 10 mph 1010.9mb 62f 58f
10:00 7 8 mph 1010.8mb 62f 58f
9:54 7 9 mph 1010.7mb 62f 58f
9:48 7 9 mph 1010.7mb 62f 58f
9:42 7 10 mph 1010.7mb 62f 57f
9:36 8 11 mph 1010.6mb 63f 58f
9:30 9 11 mph 1010.6mb 62f 57f
9:24 8 13 mph 1010.5mb 63f 58f
9:18 9 11 mph 1010.4mb 63f 58f
9:12 11 13 mph 1010.4mb 63f 58f
9:06 8 11 mph 1010.4mb 63f 58f
9:00 9 11 mph 1010.3mb 63f 58f
8:54 7 13 mph 1010.3mb 64f 58f
8:48 11 13 mph - - -
8:42 11 14 mph 1010.2mb 65f 58f
8:36 10 14 mph 1010mb 64f 58f
8:30 11 15 mph 1009.9mb 65f 58f
8:24 11 14 mph 1009.9mb 65f 58f
8:18 13 15 mph 1009.9mb 65f 58f
8:12 11 14 mph 1009.8mb 65f 59f
8:06 10 13 mph 1009.8mb 66f 58f
8:00 8 13 mph 1009.8mb 66f 59f
7:54 9 13 mph 1009.8mb 66f 59f
7:48 9 10 mph 1009.8mb 66f 59f
7:42 9 10 mph 1009.7mb 66f 59f
7:36 6 8 mph 1009.7mb 66f 59f
7:30 9 10 mph 1009.7mb 66f 59f
7:24 7 10 mph 1009.6mb 67f 59f
7:18 7 11 mph - - -
7:12 9 10 mph 1009.6mb 67f 59f
7:06 7 13 mph 1009.6mb 67f 59f
7:00 10 13 mph 1009.6mb 67f 59f
6:54 9 14 mph 1009.6mb 67f 59f
6:48 9 13 mph 1009.6mb 67f 60f
6:42 10 14 mph 1009.7mb 67f 59f
6:36 11 14 mph 1009.7mb 67f 60f
6:30 10 14 mph 1009.7mb 67f 59f
6:24 10 14 mph 1009.6mb 67f 59f
6:18 10 13 mph - - -
6:12 11 14 mph 1009.7mb 67f 59f
6:06 11 14 mph 1009.7mb 67f 60f
6:00 13 14 mph - 67f 59f
5:54 13 14 mph - 67f 60f
5:48 13 14 mph - - -
5:42 11 14 mph 1009.9mb 67f 60f
5:36 13 15 mph 1010mb 67f 59f
5:30 13 15 mph 1010mb 67f 60f
5:24 11 14 mph 1009.9mb 67f 60f
5:18 10 14 mph - - -
5:12 10 14 mph 1009.9mb 67f 60f
5:06 13 14 mph 1009.9mb 67f 60f
5:00 11 14 mph 1009.9mb - -
4:54 11 14 mph 1010mb 67f 60f
4:48 11 13 mph 1010mb - -
4:42 10 11 mph 1010mb 67f 60f
4:36 10 13 mph 1010mb 67f 60f
4:30 10 13 mph - - -
4:24 10 13 mph 1010.2mb 67f 60f
4:18 11 14 mph 1010.2mb 67f 60f
4:12 11 13 mph 1010.2mb 67f 60f
4:06 11 14 mph 1010.3mb 67f 60f
4:00 11 14 mph 1010.4mb 67f 60f
3:54 10 14 mph 1010.4mb 67f 60f
3:48 10 14 mph 1010.5mb - -
3:42 9 11 mph 1010.3mb 67f 60f
3:36 10 13 mph 1010.4mb 67f 60f
3:30 10 11 mph 1010.5mb 67f -
3:24 8 10 mph 1010.6mb 67f 60f
3:18 8 10 mph - - -
3:12 9 11 mph 1010.8mb 67f 60f
3:06 10 14 mph 1011mb 67f 60f
3:00 11 14 mph 1011.2mb 67f -
2:54 11 15 mph 1011.2mb 67f 60f
2:48 13 15 mph 1011.5mb - -
2:42 9 10 mph 1011.3mb 66f 60f
2:36 9 11 mph 1011.3mb 66f 60f
2:30 8 9 mph 1011.1mb 66f 60f
2:24 6 8 mph 1011.1mb 66f 60f
2:18 7 8 mph 1011.2mb 66f 60f
2:12 7 9 mph 1011.3mb 66f 60f
2:06 8 9 mph 1011.4mb 66f 60f
2:00 5 7 mph 1011.2mb 66f 60f
1:54 6 8 mph 1011.2mb 66f 60f
1:48 6 8 mph 1011.3mb 66f 60f
1:42 7 9 mph 1011.5mb 66f 60f
1:36 7 9 mph 1011.6mb 66f 59f
1:30 6 7 mph 1011.6mb 66f 60f
1:24 7 8 mph 1011.7mb 66f 60f
1:18 7 8 mph 1011.6mb 66f 60f
1:12 6 9 mph 1011.8mb 66f 60f
1:06 6 8 mph 1011.8mb 66f 60f
1:00 6 8 mph 1011.9mb 66f 60f
12:54 7 8 mph 1011.9mb 65f 60f
12:48 6 7 mph 1011.9mb 66f 60f
12:42 5 6 mph 1011.8mb 65f 60f
12:36 3 6 mph 1012mb 65f 60f
12:30 2 6 mph 1012.1mb 65f 60f
12:24 5 6 mph 1012.2mb 65f 60f
12:18 6 8 mph 1012.2mb 65f 59f
12:12 5 7 mph 1012.2mb 65f 59f
12:06 6 8 mph 1012.3mb 65f 59f
12:00 7 10 mph 1012.5mb 65f 59f
11:54 8 10 mph 1012.6mb 65f 59f
11:48 7 9 mph 1012.4mb 65f 59f
11:42 8 9 mph 1012.5mb 64f 59f
11:36 7 9 mph 1012.5mb 64f 59f
11:30 7 10 mph 1012.4mb 64f 59f
11:24 8 11 mph 1012.6mb 64f 59f
11:18 10 11 mph 1012.6mb 64f 59f
11:12 10 13 mph 1012.6mb 64f 59f
11:06 8 9 mph 1012.4mb 64f 59f
11:00 7 8 mph 1012.5mb 64f 59f
10:54 7 9 mph 1012.3mb 64f 59f
10:48 5 6 mph 1012.3mb 64f 60f
10:42  -  2 mph 1011.9mb 64f 61f
10:36  -  2 mph 1012mb 63f 60f
10:30 5 7 mph 1012.4mb 63f 58f
10:24 6 8 mph 1012.6mb 63f 58f
10:18 7 9 mph 1012.7mb 64f 58f
10:12 9 10 mph 1012.9mb 63f 58f
10:06 9 10 mph 1013mb 62f 58f
10:00 10 14 mph 1013mb 61f 58f
9:54 10 13 mph 1012.9mb 61f 58f
9:48 10 11 mph 1012.9mb 61f 57f
9:42 9 11 mph 1012.8mb 61f 57f
9:36 10 11 mph 1012.8mb 61f 57f
9:30 8 11 mph 1012.7mb 61f 58f
9:24 8 9 mph 1012.7mb 62f 57f
9:18 7 9 mph 1012.7mb 62f 57f
9:12 6 6 mph 1012.8mb 62f 57f
9:06 3 6 mph 1012.7mb 62f 58f
9:00 5 6 mph 1012.7mb 63f 58f
8:54 5 7 mph 1012.5mb 63f 57f
8:48 6 8 mph 1012.6mb 63f 57f
8:42 7 8 mph 1012.6mb 63f 57f
8:36 7 7 mph 1012.7mb 62f 57f
8:30 6 8 mph 1012.7mb 62f 57f
8:24 7 9 mph 1012.8mb 62f 57f
8:18 8 10 mph 1012.8mb 62f 58f
8:12 7 8 mph 1012.9mb 63f 58f
8:06 6 7 mph 1012.9mb 63f 58f
8:00 5 7 mph 1012.7mb 63f 58f
7:54 1 3 mph 1012.5mb 63f 58f
7:48 1 1 mph 1012.5mb 63f 58f
7:42  -  3 mph 1012.3mb 63f 58f
7:36 2 3 mph 1012.1mb 63f 58f
7:30 2 6 mph 1012.4mb 63f 58f
7:24 6 6 mph 1012.5mb 63f 58f
7:18 3 7 mph 1012.4mb 64f 58f
7:12 6 7 mph 1012.3mb 64f 58f
7:06 6 9 mph 1012.3mb 65f 58f
7:00 8 9 mph 1012.4mb 65f 58f
6:54 9 11 mph 1012.4mb 65f 58f
6:48 11 14 mph 1012.3mb 65f 58f
6:42 13 14 mph 1012.3mb 65f 58f
6:36 7 8 mph 1012.1mb 65f 59f
6:30 6 8 mph 1012mb 65f 59f
6:24 5 6 mph 1012mb 65f 59f
6:18 2 6 mph 1011.9mb 65f 59f
6:12 5 6 mph 1011.8mb 65f 59f
6:06 3 5 mph 1011.8mb 65f 59f
6:00 2 5 mph 1011.8mb 65f 59f
5:54  -  2 mph 1011.7mb 65f 58f
5:48  -  2 mph 1011.8mb 65f 58f
5:42  -  3 mph 1011.8mb 65f 58f
5:36 3 6 mph 1011.7mb 65f 58f
5:30 5 9 mph 1011.7mb 65f 58f
5:24 7 8 mph 1011.6mb 65f 58f
5:18 2 7 mph 1011.7mb 65f 58f
5:12 5 7 mph 1011.5mb 65f 58f
5:06 3 7 mph 1011.7mb 65f 58f
5:00 5 6 mph 1011.5mb 65f 58f
4:54 6 8 mph 1011.3mb 65f 58f
4:48 2 3 mph 1011.4mb 65f 58f
4:42  -  3 mph 1011.4mb 65f 58f
4:36 3 3 mph 1011.6mb 65f 58f
4:30  -  2 mph 1011.6mb 65f 58f
4:24 2 3 mph 1011.7mb 64f 58f
4:18 2 5 mph 1011.7mb 64f 58f
4:12 3 6 mph 1011.8mb 64f 58f
4:06 3 5 mph 1011.9mb 64f 58f
4:00 2 5 mph 1011.9mb 64f 58f
3:54 1 2 mph 1012mb 64f 58f
3:48 2 3 mph 1012mb 64f 58f
3:42 3 6 mph 1012mb 64f 58f
3:36 3 6 mph 1012.1mb 64f 58f
3:30 1 3 mph 1012.1mb 64f 58f
3:24 2 5 mph 1012mb 64f 58f
3:18 3 5 mph 1012mb 64f 58f
3:12 2 5 mph 1012mb 64f 58f
3:06 2 3 mph 1012mb 64f 58f
3:00 3 6 mph 1012.1mb 64f 58f
2:54 6 6 mph 1012.2mb 64f 58f
2:48 5 6 mph 1012.2mb 64f 58f
2:42 6 7 mph 1012.2mb 64f 58f
2:36 5 6 mph 1012.2mb 64f 58f
2:30 5 6 mph 1012.1mb 64f 58f
2:24 3 6 mph 1012.1mb 64f 58f
2:18 5 6 mph 1012.2mb 64f 58f
2:12 5 6 mph 1012.3mb 64f 58f
2:06 5 6 mph 1012.3mb 64f 58f
2:00 3 6 mph 1012.3mb 64f 58f
1:54 5 6 mph 1012.5mb 64f 59f
1:48 3 5 mph 1012.6mb 64f 59f
1:42 3 3 mph 1012.6mb 64f 59f
1:36 3 5 mph 1012.7mb 64f 59f
1:30 2 5 mph 1012.8mb 64f 59f
1:24 3 3 mph 1012.9mb 64f 59f
1:18  -  2 mph 1012.9mb 64f 59f
1:12  -  1 mph 1012.9mb 64f 58f
1:06 1 6 mph 1013mb 64f 58f
1:00 5 6 mph 1013mb 64f 59f
12:54 5 6 mph 1013.1mb 64f 59f
12:48 1 3 mph 1013.1mb 64f 58f
12:42 3 5 mph 1013mb 64f 58f
12:36 2 5 mph 1013mb 64f 59f
12:30 3 6 mph 1013.1mb 64f 59f
12:24 1 6 mph 1013.1mb 64f 59f
12:18 5 6 mph 1013.2mb 64f 59f
12:12 2 3 mph 1013.2mb 64f 59f
12:06  -  2 mph 1013.2mb 64f 59f
12:00  -  2 mph 1013.2mb 63f 59f
Di 05/23 11:54 3 6 mph 1013.3mb 63f 58f
11:48 3 5 mph 1013.3mb 63f 59f
11:42 3 5 mph 1013.3mb - -
11:36 3 5 mph 1013.5mb - -
11:30 3 6 mph 1013.5mb 62f 59f
11:24 3 5 mph 1013.6mb 63f 59f
11:18 1 3 mph 1013.5mb 62f 58f
11:12 3 5 mph 1013.6mb 63f 58f
11:06 3 3 mph 1013.6mb 63f 58f
11:00 3 5 mph 1013.6mb 63f 58f
10:54 5 6 mph 1013.6mb 62f 58f
10:48 2 3 mph 1013.6mb 63f 59f
10:42 2 5 mph 1013.7mb 63f 58f
10:36  -  5 mph 1013.6mb 62f 58f
10:30 5 6 mph 1013.6mb 62f 58f
10:24 2 5 mph 1013.7mb 62f 58f
10:18 3 5 mph 1013.6mb 62f 58f
10:12 1 5 mph 1013.6mb 62f 58f
10:06 2 5 mph 1013.6mb 63f 58f
10:00 2 3 mph 1013.6mb 62f 58f
9:54  -  2 mph 1013.5mb 62f 58f
9:48 2 5 mph 1013.4mb 63f 58f
9:42 3 5 mph 1013.4mb 63f 58f
9:36 1 5 mph 1013.3mb 63f 58f
9:30 1 5 mph 1013.3mb 63f 58f
9:24 3 6 mph 1013.1mb 63f 58f
9:18 5 6 mph 1013.1mb 63f 58f
9:12 5 5 mph 1013.1mb 63f 58f
9:06 2 5 mph 1013.1mb 63f 58f
9:00 3 6 mph 1013.1mb 64f 58f
8:54 3 6 mph 1013mb 64f 58f
8:48 5 6 mph - - -
8:42 5 8 mph 1012.9mb 65f 58f
8:36 6 9 mph 1013mb 65f 58f
8:30 7 10 mph 1012.9mb 65f 58f
8:24 8 9 mph 1012.8mb 65f 58f
8:18 9 10 mph 1012.8mb 65f 58f
8:12 9 11 mph 1012.8mb 65f 58f
8:06 8 11 mph 1012.7mb 66f 58f
8:00 9 11 mph 1012.7mb 66f 58f
7:54 10 14 mph 1012.8mb 66f 58f
7:48 10 11 mph 1012.7mb 66f 58f
7:42 10 13 mph 1012.5mb 66f 58f
7:36 9 13 mph 1012.4mb 66f 58f
7:30 9 13 mph 1012.3mb 66f 58f
7:24 9 11 mph 1012.3mb 66f 59f
7:18 10 13 mph - - -
7:12 11 13 mph 1012.2mb 66f 59f
7:06 10 14 mph 1012.2mb 67f 60f
7:00 11 14 mph 1012.1mb 67f 60f
6:54 11 13 mph 1012.1mb 67f 60f
6:48 11 14 mph - - -
6:42 11 13 mph 1012mb 67f 60f
6:36 11 14 mph 1012mb 67f 60f
6:30 13 16 mph 1012.1mb 67f -
6:24 15 17 mph 1012.1mb 67f 59f
6:18 16 18 mph 1012.2mb 67f 60f
6:12 17 21 mph 1012.2mb 67f 60f
6:06 17 21 mph 1012.3mb 67f 60f
6:00 18 22 mph 1012.4mb 67f -
5:54 20 22 mph 1012.5mb 67f 60f
5:48 17 22 mph - - -
5:42 20 21 mph 1012.8mb 67f 60f
5:36 16 17 mph 1012.8mb 67f 61f
5:30 13 14 mph 1012.7mb 67f -
5:24 13 14 mph 1012.6mb 67f 60f
5:18 13 15 mph - - -
5:12 14 14 mph 1012.6mb 66f 60f
5:06 13 14 mph 1012.6mb 66f 60f
5:00 13 14 mph 1012.6mb 67f -
4:54 13 14 mph 1012.7mb 66f 61f
4:48 11 14 mph - - -
4:42 10 13 mph 1013mb 66f 62f
4:36 9 10 mph 1013mb 66f 62f
4:30 8 10 mph 1013mb 66f -
4:24 8 11 mph 1013.2mb 66f 61f
4:18 9 10 mph - - -
4:12 8 10 mph 1013.2mb 66f 61f
4:06 9 10 mph 1013.4mb 66f 61f
4:00 7 9 mph 1013.4mb 66f -
3:54 7 8 mph 1013.4mb 66f 61f
3:48 6 6 mph - - -
3:42 6 7 mph 1013.5mb 66f 61f
3:36 6 7 mph 1013.5mb 66f 61f
3:30 6 8 mph 1013.6mb 66f -
3:24 7 8 mph 1013.7mb 66f 60f
3:18 7 9 mph 1013.8mb 66f 60f
3:12 8 9 mph 1013.9mb 66f 60f
3:06 7 9 mph 1014mb 66f 60f
3:00 8 9 mph 1014mb 66f -
2:54 9 10 mph 1014mb 66f 60f
2:48 8 9 mph - - -
2:42 7 8 mph 1014mb 66f 60f
2:36 7 8 mph 1014.1mb 66f 60f
2:30 8 8 mph 1014.2mb 66f 60f
2:24 8 9 mph 1014.3mb 66f 60f
2:18 9 11 mph 1014.3mb 66f 59f
2:12 9 13 mph 1014.5mb 66f 60f
2:06 13 14 mph 1014.6mb 66f 59f
2:00 13 14 mph 1014.7mb 66f 59f
1:54 13 14 mph 1014.7mb 66f 59f
1:48 11 14 mph 1014.7mb 65f 59f
1:42 11 13 mph 1014.7mb 65f 59f
1:36 11 14 mph 1014.7mb 65f 59f
1:30 10 14 mph 1014.8mb 65f 59f
1:24 13 14 mph 1014.9mb 65f 59f
1:18 13 14 mph 1015mb 65f 59f
1:12 14 15 mph 1015mb 65f 59f
1:06 14 16 mph 1015.1mb 65f 59f
1:00 14 17 mph 1015.2mb 65f 59f
12:54 16 18 mph 1015.2mb 65f 59f
12:48 16 18 mph 1015.2mb 65f 59f
12:42 17 18 mph 1015.2mb 65f 59f
12:36 16 17 mph 1015.1mb 65f 59f
12:30 16 17 mph 1015.2mb 65f 59f
12:24 15 17 mph 1015.2mb 65f 59f
12:18 15 17 mph 1015.2mb 65f 60f
12:12 14 16 mph 1015.3mb 65f 60f
12:06 14 16 mph 1015.3mb 65f 60f
12:00 14 15 mph 1015.4mb 65f 60f
11:54 14 15 mph 1015.4mb 65f 60f
11:48 11 16 mph 1015.5mb 65f 59f
11:42 14 16 mph 1015.5mb 65f 59f
11:36 14 17 mph 1015.5mb 65f 59f
11:30 14 17 mph 1015.5mb 65f 59f
11:24 15 17 mph 1015.5mb 65f 59f
11:18 15 17 mph 1015.5mb 65f 59f
11:12 14 16 mph 1015.4mb 65f 59f
11:06 15 16 mph 1015.4mb 65f 59f
11:00 14 15 mph 1015.3mb 65f 59f
10:54 14 15 mph 1015.3mb 64f 59f
10:48 14 15 mph 1015.2mb 64f 59f
10:42 13 14 mph 1015.1mb 65f 59f
10:36 11 14 mph 1015mb 64f 59f
10:30 11 13 mph 1014.9mb 64f 59f
10:24 10 13 mph 1014.8mb 64f 59f
10:18 10 13 mph 1014.7mb 64f 59f
10:12 10 11 mph 1014.6mb 63f 59f
10:06 9 11 mph 1014.5mb 62f 59f
10:00 9 10 mph 1014.4mb 62f 59f
9:54 9 10 mph 1014.4mb 61f 60f
9:48 9 10 mph 1014.4mb 61f 60f
9:42 9 10 mph 1014.4mb 61f 60f
9:36 7 8 mph 1014.3mb 61f 60f
9:30 7 8 mph 1014.3mb 61f 60f
9:24 5 6 mph 1014.2mb 61f 60f
9:18 5 5 mph 1014.1mb 61f 60f
9:12 3 5 mph 1014mb 61f 60f
9:06 3 3 mph 1014.1mb 61f 60f
9:00 3 3 mph 1014.1mb 61f 60f
8:54 2 3 mph 1014.1mb 61f 60f
8:48 2 3 mph - - -
8:42 3 5 mph 1014.3mb 61f 60f
8:36 3 5 mph 1014.2mb 61f 60f
8:30 2 5 mph 1014.3mb 61f 60f
8:24 3 5 mph 1014.3mb 61f 60f
8:18 3 5 mph 1014.4mb 61f 60f
8:12 2 3 mph 1014.5mb 61f 61f
8:06 2 3 mph 1014.5mb 61f 61f
8:00 1 2 mph 1014.6mb 62f 61f
7:54 1 2 mph 1014.6mb 62f 61f
7:48  -  1 mph 1014.5mb 62f 61f
7:42 1 2 mph 1014.5mb 62f 60f
7:36  -  1 mph 1014.5mb 63f 60f
7:30 2 2 mph 1014.5mb 63f 59f
7:24 1 5 mph 1014.5mb 63f 59f
7:18 3 5 mph 1014.5mb 63f 59f
7:12 3 5 mph 1014.5mb 62f 59f
7:06 3 5 mph 1014.6mb 63f 59f
7:00 3 5 mph 1014.6mb 63f 59f
6:54 2 6 mph 1014.6mb 63f 59f
6:48 3 6 mph 1014.6mb 63f 59f
6:42 2 5 mph 1014.5mb 64f 59f
6:36 5 5 mph 1014.5mb 64f 59f
6:30 3 6 mph 1014.5mb 64f 59f
6:24 3 3 mph 1014.5mb 64f 59f
6:18 5 6 mph - - -
6:12 5 6 mph 1014.5mb 64f 59f
6:06 3 6 mph 1014.5mb 64f 59f
6:00 5 6 mph 1014.5mb 65f 59f
5:54 3 5 mph 1014.5mb 65f 59f
5:48 3 5 mph 1014.5mb 65f 59f
5:42 2 5 mph 1014.4mb 65f 59f
5:36 2 3 mph 1014.3mb 65f 59f
5:30 3 5 mph 1014.3mb 65f 59f
5:24 3 5 mph 1014.3mb 65f 59f
5:18 3 5 mph 1014.1mb 65f 59f
5:12 2 5 mph 1014.1mb 65f 59f
5:06 3 5 mph 1014mb 65f 59f
5:00 2 5 mph 1014mb 65f 59f
4:54 3 5 mph 1014mb 65f 59f
4:48 3 3 mph 1014mb 65f 59f
4:42 1 2 mph 1013.9mb 65f 59f
4:36 2 2 mph 1013.8mb 65f 59f
4:30 1 2 mph 1013.9mb 65f 59f
4:24  -  2 mph 1013.9mb 65f 59f
4:18 1 3 mph 1014mb 65f 59f
4:12 2 2 mph 1014mb 65f 59f
4:06 1 2 mph 1014mb 65f 59f
4:00  -  1 mph 1014mb 65f 59f
3:54  -  2 mph 1014.1mb 65f 59f
3:48 1 2 mph 1014.1mb 65f 59f
3:42 1 2 mph 1014.1mb 65f 59f
3:36 1 2 mph 1014.1mb 65f 59f
3:30 2 3 mph 1014.1mb 65f 59f
3:24 3 5 mph 1014.1mb 65f 59f
3:18 3 5 mph - - -
3:12 3 5 mph 1014.1mb 65f 59f
3:06 2 3 mph 1014.1mb 65f 59f
3:00 3 3 mph 1014.1mb 65f 59f
2:54 3 5 mph 1014.1mb 65f 59f
2:48 3 6 mph 1014.1mb 65f 59f
2:42 5 6 mph 1014.1mb 65f 59f
2:36 3 5 mph 1014.1mb 65f 59f
2:30 2 3 mph 1014.2mb 65f 59f
2:24 2 6 mph 1014.2mb 65f 59f
2:18 5 6 mph 1014.3mb 65f 59f
2:12 1 6 mph 1014.3mb 65f 59f
2:06 2 5 mph 1014.5mb 65f 59f
2:00 2 3 mph 1014.6mb 65f 59f
1:54  -  2 mph 1014.7mb 65f 59f
1:48 1 2 mph 1014.7mb 65f 59f
1:42 1 3 mph 1014.8mb 64f 59f
1:36 2 3 mph 1014.9mb 65f 59f
1:30 1 3 mph 1014.9mb 65f 59f
1:24  -  2 mph 1015mb 65f 59f
1:18 2 5 mph 1015.1mb 65f 59f
1:12 5 6 mph 1015.1mb 65f 59f
1:06 6 8 mph 1015.2mb 65f 59f
1:00 3 6 mph 1015.3mb 65f 59f
12:54 6 7 mph 1015.3mb 65f 59f
12:48 3 6 mph 1015.3mb 65f 59f
12:42 1 5 mph 1015.3mb 65f 59f
12:36 1 3 mph 1015.4mb 64f 59f
12:30 2 3 mph 1015.3mb 65f 59f
12:24 2 2 mph 1015.4mb 65f 59f
12:18 1 6 mph 1015.3mb 65f 59f
12:12 3 5 mph 1015.3mb 65f 59f
12:06 2 3 mph 1015.3mb 65f 59f
12:00 3 6 mph 1015.2mb 65f 59f
Mo 05/22 11:54 5 6 mph 1015.2mb 65f 59f
11:48 2 5 mph 1015.2mb 65f 59f
11:42 6 7 mph 1015.2mb 65f -
11:36 3 6 mph 1015.2mb 65f -
11:30 7 8 mph 1015.2mb 65f 59f
11:24 3 7 mph 1015.2mb 65f 59f
11:18 6 7 mph 1015.1mb 64f 59f
11:12 5 6 mph 1015.1mb 65f 59f
11:06 2 5 mph 1015mb 65f 59f
11:00 5 7 mph 1015mb 64f 59f
10:54 6 7 mph 1014.9mb 64f 59f
10:48 3 7 mph 1014.9mb 64f 59f
10:42 2 5 mph 1014.8mb 64f 59f
10:36 5 7 mph 1014.8mb 64f 59f
10:30 6 7 mph 1014.7mb 64f 59f
10:24 3 5 mph 1014.7mb 64f 59f
10:18 2 5 mph 1014.6mb 63f 59f
10:12 3 5 mph 1014.5mb 63f 59f
10:06 3 5 mph 1014.5mb 63f 59f
10:00 2 3 mph 1014.4mb 63f 59f
9:54 2 3 mph 1014.4mb 62f 59f
9:48  -  5 mph 1014.4mb 62f 59f
9:42 3 5 mph 1014.5mb 63f 59f
9:36 1 2 mph 1014.5mb 63f 59f
9:30 2 6 mph 1014.4mb 63f 59f
9:24 2 5 mph 1014.4mb 63f 59f
9:18 2 3 mph 1014.4mb 63f 59f
9:12 3 5 mph 1014.3mb 63f 59f
9:06 5 6 mph 1014.3mb 63f 59f
9:00 3 5 mph 1014.2mb 63f 59f
8:54 3 7 mph 1014.2mb 63f 59f
8:48 5 7 mph - - -
8:42 5 8 mph 1014.1mb 63f 59f
8:36 7 8 mph 1014mb 63f 59f
8:30 8 9 mph 1014mb 63f 59f
8:24 6 8 mph 1013.9mb 63f 60f
8:18 6 8 mph 1013.8mb 64f 60f
8:12 7 8 mph 1013.8mb 64f 60f
8:06 8 9 mph 1013.7mb 64f 59f
8:00 7 8 mph 1013.7mb 64f 60f
7:54 7 8 mph 1013.6mb 64f 60f
7:48 7 9 mph 1013.5mb 64f 59f
7:42 8 9 mph 1013.4mb 63f 60f
7:36 7 8 mph 1013.3mb 64f 60f
7:30 7 8 mph 1013.2mb 64f 60f
7:24 7 8 mph 1013.2mb 64f 60f
7:18 7 8 mph 1013.2mb 64f 60f
7:12 7 10 mph 1013.2mb 64f 60f
7:06 9 10 mph 1013.2mb 64f 59f
7:00 8 10 mph 1013.2mb 64f 60f
6:54 8 9 mph 1013.1mb 65f 60f
6:48 8 8 mph - - -
6:42 8 10 mph 1013.1mb 66f 60f
6:36 8 10 mph 1013mb 67f 60f
6:30 9 11 mph 1013mb 67f -
6:24 11 13 mph 1013mb 67f 59f
6:18 11 14 mph - - -
6:12 13 14 mph 1013.1mb 67f 59f
6:06 13 14 mph 1013.1mb 67f 59f
6:00 11 15 mph 1013.1mb 67f -
5:54 14 15 mph 1013.1mb 67f 59f
5:48 14 15 mph 1013.2mb 67f 59f
5:42 13 15 mph 1013.3mb 67f 59f
5:36 14 15 mph 1013.4mb 67f 59f
5:30 14 16 mph 1013.4mb 67f -
5:24 14 15 mph 1013.4mb 67f 60f
5:18 14 15 mph - - -
5:12 13 15 mph 1013.5mb 67f 60f
5:06 13 15 mph 1013.5mb 67f 60f
5:00 14 15 mph - - -
4:54 14 15 mph 1013.5mb 67f 60f
4:48 14 15 mph - - -
4:42 14 15 mph 1013.6mb 67f 61f
4:36 14 15 mph 1013.7mb 67f 61f
4:30 13 14 mph 1013.6mb - -
4:24 13 14 mph 1013.7mb 67f 61f
4:12 13 14 mph 1013.8mb 67f 62f
4:06 11 13 mph 1013.8mb 67f 62f
4:00 11 13 mph 1013.8mb 67f -
3:54 10 13 mph 1013.9mb 67f 62f
3:48 11 13 mph - - -
3:42 10 13 mph 1014mb 67f 62f
3:36 10 13 mph 1014.1mb 67f 61f
3:30 9 10 mph 1014.2mb 67f -
3:24 9 11 mph 1014.2mb 67f 61f
3:18 9 11 mph 1014.3mb 66f 61f
3:12 10 11 mph 1014.3mb 67f 60f
3:06 9 11 mph 1014.4mb 66f 61f
3:00 9 10 mph 1014.4mb 66f -
2:54 8 10 mph 1014.5mb 66f 60f
2:48 10 11 mph - - -
2:42 9 11 mph 1014.6mb 66f 60f
2:36 8 10 mph 1014.7mb 66f 60f
2:30 9 10 mph 1014.7mb 66f 60f
2:24 9 10 mph 1014.8mb 66f 60f
2:18 7 10 mph 1014.8mb 66f 60f
2:12 8 11 mph 1014.8mb 66f 60f
2:06 7 9 mph 1014.8mb 66f 60f
2:00 8 10 mph 1014.8mb 66f 60f
1:54 9 11 mph 1014.8mb 66f 60f
1:48 7 9 mph 1014.9mb 66f 60f
1:42 8 10 mph 1014.9mb 66f 60f
1:36 8 9 mph 1015mb 65f 59f
1:30 7 10 mph 1015.1mb 65f 59f
1:24 8 9 mph 1015.1mb 65f 59f
1:18 8 9 mph 1015.2mb 65f 59f
1:12 6 9 mph 1015.3mb 65f 59f
1:06 7 7 mph 1015.2mb 65f 59f
1:00 6 9 mph 1015.3mb 65f 59f
12:54 6 9 mph 1015.3mb 65f 59f
12:48 7 9 mph 1015.3mb 65f 59f
12:42 8 8 mph 1015.4mb 65f 59f
12:36 7 9 mph 1015.4mb 65f 59f
12:30 6 8 mph 1015.5mb 65f 59f
12:24 6 7 mph 1015.5mb 64f 60f
12:18 6 8 mph 1015.5mb 64f 59f
12:12 6 7 mph 1015.5mb 64f 59f
12:06 6 8 mph 1015.6mb 64f 59f
12:00 6 7 mph 1015.6mb 64f 59f
11:54 6 7 mph 1015.6mb 64f 59f
11:48 6 8 mph 1015.6mb 64f 59f
11:42 7 7 mph 1015.6mb 64f 59f
11:36 5 7 mph 1015.7mb 64f 59f
11:30 6 7 mph 1015.7mb 63f 59f
11:24 6 7 mph 1015.7mb 63f 59f
11:18 6 6 mph 1015.8mb 63f 59f
11:12 5 6 mph 1015.7mb 63f 59f
11:06 5 6 mph 1015.7mb 62f 59f
11:00 5 6 mph 1015.6mb 62f 59f
10:54 5 6 mph 1015.7mb 62f 59f
10:48 5 6 mph 1015.7mb 61f 59f
10:42 3 6 mph 1015.7mb 61f 59f
10:36 2 5 mph 1015.7mb 61f 59f
10:30 3 5 mph 1015.7mb 60f 58f
10:24 5 6 mph 1015.8mb 60f 58f
10:18 5 6 mph 1015.8mb 60f 58f
10:12 3 5 mph 1015.8mb 60f 58f
10:06 3 6 mph 1015.8mb 60f 59f
10:00 5 6 mph 1015.8mb 60f 58f
9:54 3 5 mph 1015.8mb 60f 58f
9:48 3 3 mph 1015.8mb 60f 58f
9:42 2 3 mph 1015.8mb 60f 58f
9:36 3 5 mph 1015.8mb 60f 58f
9:30 3 3 mph 1015.8mb 60f 58f
9:24 2 3 mph 1015.8mb 60f 58f
9:18 2 5 mph 1015.8mb 60f 58f
9:12 3 5 mph 1015.8mb 60f 58f
9:06 2 3 mph 1015.7mb 60f 58f
9:00 2 5 mph 1015.6mb 60f 58f
8:54 5 6 mph 1015.5mb 60f 58f
8:48 3 3 mph 1015.4mb 60f 58f
8:42 3 5 mph 1015.3mb 60f 58f
8:36 3 6 mph 1015.3mb 60f 58f
8:30 3 5 mph 1015.2mb 60f 58f
8:24 3 5 mph 1015.2mb 61f 58f
8:18 2 6 mph 1015.1mb 61f 58f
8:12 3 6 mph 1015.1mb 61f 58f
8:06 5 6 mph 1015mb 61f 58f
8:00 3 5 mph 1015mb 61f 58f
7:54 6 6 mph 1015mb 61f 58f
7:48 6 8 mph 1014.9mb 61f 58f
7:42 3 5 mph 1014.9mb 61f 58f
7:36 5 6 mph 1014.8mb 62f 58f
7:30 3 7 mph 1014.8mb 62f 58f
7:24 5 6 mph 1014.7mb 62f 58f
7:18 3 5 mph 1014.6mb 62f 58f
7:12 3 5 mph 1014.5mb 62f 58f
7:06 5 6 mph 1014.4mb 62f 58f
7:00 3 6 mph 1014.3mb 62f 58f
6:54 5 6 mph 1014.3mb 62f 58f
6:48 5 5 mph 1014.3mb 62f 59f
6:30 3 5 mph 1014mb 62f 59f
6:24 2 3 mph 1013.9mb 62f 59f
6:18 3 5 mph 1013.8mb 63f 59f
6:12 2 3 mph 1013.8mb 63f 59f
6:06 2 6 mph 1013.7mb 63f 59f
6:00 5 6 mph 1013.7mb 63f 59f
5:54 3 5 mph 1013.6mb 63f 59f
5:48 2 3 mph 1013.6mb 63f 59f
5:42 3 5 mph 1013.5mb 63f 59f
5:36 3 7 mph 1013.5mb 63f 59f
5:30 2 5 mph 1013.4mb 63f 59f
5:24 2 5 mph 1013.4mb 64f 59f
5:18 2 6 mph 1013.4mb 64f 59f
5:12 5 6 mph 1013.4mb 65f 59f
5:06 3 6 mph 1013.4mb 65f 59f
5:00 2 3 mph 1013.4mb 65f 59f
4:54 3 5 mph 1013.4mb 65f 59f
4:48 3 5 mph 1013.4mb 65f 59f
4:42 2 3 mph 1013.4mb 65f 59f
4:36 2 3 mph 1013.4mb 65f 59f
4:30 3 5 mph 1013.4mb 65f 59f
4:24 1 3 mph 1013.3mb 65f 59f
4:18 2 5 mph 1013.4mb 65f 60f
4:12 2 5 mph 1013.4mb 65f 60f
4:06 5 6 mph 1013.4mb 65f 60f
4:00 2 3 mph 1013.4mb 65f 60f
3:54 1 5 mph 1013.4mb 65f 60f
3:48 3 5 mph 1013.5mb 65f 60f
3:42 3 5 mph 1013.5mb 66f 60f
3:36 2 3 mph 1013.6mb 66f 60f
3:30 2 3 mph 1013.6mb 66f 60f
3:24 1 3 mph 1013.7mb 66f 60f
3:18 2 3 mph 1013.7mb 66f 60f
3:12 1 3 mph 1013.8mb 66f 60f
3:06  -  2 mph 1013.8mb 66f 60f
3:00 1 2 mph 1013.9mb 66f 60f
2:54 1 2 mph 1014mb 66f 60f
2:48 3 6 mph 1014mb 66f 60f
2:42 5 6 mph 1014mb 66f 60f
2:36 2 3 mph 1014.1mb 66f 60f
2:30 2 3 mph 1014.1mb 66f 61f
2:24 3 5 mph 1014.2mb 66f 60f
2:18 2 5 mph 1014.3mb 66f 61f
2:12 2 5 mph 1014.4mb 66f 61f
2:06 1 3 mph 1014.4mb 66f 61f
2:00 2 3 mph 1014.4mb 66f 61f
1:54 3 5 mph 1014.4mb 66f 61f
1:48  -  3 mph 1014.5mb 66f 61f
1:42 2 2 mph 1014.6mb 66f 61f
1:36 2 3 mph 1014.6mb 66f 61f
1:30 2 5 mph 1014.6mb 66f 61f
1:24 2 5 mph 1014.7mb 66f 61f
1:18 2 3 mph 1014.6mb 66f 61f
1:12 2 5 mph 1014.6mb 66f 61f
1:06 2 3 mph 1014.6mb 66f 61f
1:00 2 3 mph 1014.6mb 66f 61f
12:54 3 5 mph 1014.6mb 66f 61f
12:48 2 3 mph 1014.6mb 66f 61f
12:42  -  5 mph 1014.6mb 66f 61f
12:36 3 5 mph 1014.6mb 66f 61f
12:30  -  1 mph 1014.6mb 66f 61f
12:24  -  1 mph 1014.6mb 66f 61f
12:18  -  1 mph 1014.6mb 66f 60f
12:12 1 2 mph 1014.6mb 66f 61f
12:06 1 2 mph 1014.6mb 66f 61f
12:00 2 3 mph 1014.6mb 66f 61f
So 05/21 11:54 3 5 mph 1014.5mb 66f 61f
11:48 5 5 mph - - -
11:42 3 5 mph 1014.6mb 65f 61f
11:36 3 5 mph 1014.6mb 65f 61f
11:30 2 5 mph 1014.6mb 65f 61f
11:24 3 5 mph 1014.6mb 65f 61f
11:18 1 2 mph 1014.5mb 65f 61f
11:12 3 3 mph 1014.5mb 65f 61f
11:06 3 3 mph 1014.5mb 65f 61f
11:00 3 5 mph 1014.5mb 65f 61f
10:54 3 5 mph 1014.5mb 65f 61f
10:48 5 5 mph 1014.4mb 65f 61f
10:42 3 5 mph 1014.4mb 65f 61f
10:36 3 5 mph 1014.4mb 65f 61f
10:30 5 6 mph 1014.4mb 65f 61f
10:24 3 5 mph 1014.3mb 65f 61f
10:18 3 5 mph 1014.2mb 65f 61f
10:12 2 3 mph 1014.1mb 65f 61f
10:06 2 3 mph 1014.1mb 64f 61f